Sarasota, FL

4:47 PM EST on December 07, 2019 (GMT -0500)
Sarasota-bradenton

Weather History for KSRQ - November, 2019

Change the Weather History Date:

Tuesday, November 19, 2019

  Actual Average Record
Temperature  
Mean Temperature 66 °F 68 °F  
Max Temperature 76 °F 78 °F 89 °F (1960)
Min Temperature 55 °F 59 °F 36 °F (1923)
Degree Days  
Heating Degree Days 0 1  
Month to date heating degree days 10 9  
Since 1 July heating degree days 10 12  
Cooling Degree Days 1 5  
Month to date cooling degree days 173 113  
Year to date cooling degree days 4187 3257  
Growing Degree Days 16 (Base 50)    
Moisture  
Dew Point 55 °F    
Average Humidity 73    
Maximum Humidity 97    
Minimum Humidity 46    
Precipitation  
Precipitation T in 0.05 in 1.40 in (1972)
Month to date precipitation 0.19 1.24  
Year to date precipitation 46.95 49.79  
Sea Level Pressure  
Sea Level Pressure 29.95 in    
Wind  
Wind Speed 5 mph ()    
Max Wind Speed 18 mph    
Max Gust Speed 23 mph    
Visibility 9.7 miles    
Events      
T = Trace of Precipitation, MM = Missing Value Source: Averaged Metar Reports

Daily Weather History Graph

Daily Weather History Graph

Search for Another Location

Airport or City:

Astronomy

Nov. 19, 2019 Rise Set
Actual Time 6:53 AM EST 5:37 PM EST
Civil Twilight 6:28 AM EST 6:02 PM EST
Nautical Twilight 6:00 AM EST 6:30 PM EST
Astronomical Twilight 5:32 AM EST 6:58 PM EST
Moon No Moon Rise 1:06 PM EST (11/19)
Length of Visible Light 11h 33m
Length of Day
10h 43m
Waning Gibbous, 52% of the Moon is Illuminated
Nov 19
Waning Gibbous
Nov 19
Last Quarter
Nov 26
New
Dec 4
First Quarter
Dec 12
Full

Hourly Weather History & Observations

Time (EST) Temp. Dew Point Humidity Pressure Visibility Wind Dir Wind Speed Gust Speed Precip Events Conditions
12:53 AM 59.0 °F 55.9 °F 90% 29.85 in 10.0 mi ESE 3.5 mph - N/A   Mostly Cloudy
1:53 AM 61.0 °F 57.9 °F 90% 29.86 in 10.0 mi ESE 3.5 mph - 0.00 in   Partly Cloudy
3:53 AM 61.0 °F 59.0 °F 93% 29.86 in 10.0 mi ENE 5.8 mph - N/A   Mostly Cloudy
4:53 AM 60.1 °F 57.9 °F 93% 29.86 in 10.0 mi ENE 4.6 mph - N/A   Mostly Cloudy
5:53 AM 57.9 °F 55.9 °F 93% 29.88 in 8.0 mi ENE 3.5 mph - N/A   Clear
6:53 AM 59.0 °F 57.0 °F 93% 29.91 in 8.0 mi East 3.5 mph - N/A   Scattered Clouds
7:53 AM 60.1 °F 57.9 °F 93% 29.92 in 7.0 mi Calm Calm - N/A   Clear
8:53 AM 66.9 °F 61.0 °F 81% 29.92 in 10.0 mi ESE 3.5 mph - N/A   Clear
9:53 AM 73.0 °F 59.0 °F 61% 29.94 in 10.0 mi Variable 4.6 mph - N/A   Clear
10:53 AM 75.0 °F 59.0 °F 57% 29.95 in 10.0 mi NNW 12.7 mph 19.6 mph N/A   Clear
11:53 AM 73.0 °F 55.0 °F 53% 29.96 in 10.0 mi North 12.7 mph - N/A   Clear
12:53 PM 73.0 °F 52.0 °F 48% 29.94 in 10.0 mi NNW 10.4 mph 18.4 mph N/A   Clear
1:53 PM 73.9 °F 53.1 °F 48% 29.93 in 10.0 mi North 16.1 mph - N/A   Clear
2:53 PM 73.0 °F 52.0 °F 48% 29.94 in 10.0 mi NNW 13.8 mph - N/A   Clear
3:53 PM 72.0 °F 51.1 °F 48% 29.96 in 10.0 mi NNW 13.8 mph - N/A   Clear
4:53 PM 69.1 °F 52.0 °F 54% 29.97 in 10.0 mi North 11.5 mph - N/A   Clear
5:53 PM 64.9 °F 52.0 °F 63% 29.99 in 10.0 mi NNW 4.6 mph - N/A   Clear
6:53 PM 64.0 °F 53.1 °F 67% 30.01 in 10.0 mi Calm Calm - N/A   Clear
7:53 PM 62.1 °F 53.1 °F 72% 30.02 in 10.0 mi NNE 3.5 mph - N/A   Clear
8:53 PM 59.0 °F 52.0 °F 78% 30.04 in 10.0 mi East 3.5 mph - N/A   Clear
9:53 PM 57.9 °F 53.1 °F 84% 30.04 in 10.0 mi Calm Calm - N/A   Clear
10:53 PM 57.0 °F 53.1 °F 87% 30.05 in 10.0 mi Calm Calm - N/A   Clear
11:53 PM 55.9 °F 53.1 °F 90% 30.04 in 10.0 mi Calm Calm - N/A   Clear